Weather Service Report


241 
ASUS46 KLOX 290413
RWRCA 

SOUTHERN CALIFORNIA WEATHER ROUNDUP
NATIONAL WEATHER SERVICE OXNARD CALIFORNIA
900 PM PDT SUN AUG 28 2016

NOTE: "FAIR" INDICATES FEW OR NO CLOUDS BELOW 12,000 FEET WITH NO 
SIGNIFICANT WEATHER AND/OR OBSTRUCTIONS TO VISIBILITY.

  -  STATIONS PRECEEDED BY AN ASTERISK (*) ARE NOT NWS OR FAA 
     STATIONS AND ARE NOT SUBJECT TO NWS AND FAA QUALITY CONTROL.

CAZ041-042-087-290500-
LA AND ORANGE COUNTY COASTAL AREAS

  
CITY           SKY/WX    TMP DP  RH WIND       PRES   REMARKS
L.A. DOWNTOWN  CLEAR     69  60  73 CALM      29.95R                  
L.A. AIRPORT   CLEAR     69  60  73 SW9       29.95R                  
LONG BEACH     CLEAR     71  61  70 NW6       29.96R                  

CITY           SKY/WX    TMP DP  RH WIND       PRES   REMARKS
AVALON           N/A     68 N/A N/A S2          N/A                   
FULLERTON      CLEAR     73  58  59 W3        29.95R                  
*GETTY CENTER    N/A     77  50  38 VRB3        N/A                   
HAWTHORNE      CLEAR     71  61  70 SW6       29.95R                  
*LEO CARRILLO    N/A     71  59  64 NW7         N/A                   
*LOS ALAMITOS  FAIR      70  60  69 NW3       29.96R                  
*REDONDO BEACH   N/A     68  61  78 CALM      29.95R                  
SANTA ANA      CLEAR     71  62  73 SW3       29.96R                  
STA MONICA APT CLEAR     68  60  75 E5        29.95R                  
*STA MON PIER    N/A     68  63  84 N5        29.88R                  
*UCLA            N/A     66  59  77 NE2       29.93R                  

$$

CAZ547-548-048-290500-
LA COUNTY VALLEYS AND INLAND EMPIRE

  
CITY           SKY/WX    TMP DP  RH WIND       PRES   REMARKS
BURBANK        CLEAR     74  59  59 SE5       29.96R                  
VAN NUYS       CLEAR     80  54  40 W3        29.95R                  

CITY           SKY/WX    TMP DP  RH WIND       PRES   REMARKS
CORONA AIRPORT CLEAR     77  58  51 W7        29.97R                  
*CHATSWORTH      N/A     77  56  47 W1        29.95R                  
CHINO          CLEAR     76  55  48 W6        29.98R                  
*CLAREMONT       N/A     70  55  59 CALM        N/A                   
MARCH AFB      CLEAR     76  52  43 W6        30.00R                  
*NORTHRIDGE      N/A     77  52  41 W1          N/A                   
ONTARIO        CLEAR     77  53  43 W5        29.98R                  
*PASADENA        N/A    N/A N/A N/A CALM        N/A                   
POMONA         CLEAR     72  55  56 W3        30.01R                  
RIVERSIDE      CLEAR     78  53  41 W5        29.97R                  
SAN BERNARDINO NOT AVBL                                               
*SAN GABRIEL     N/A     71  60  68 S5        30.02R                  
*SAN RAFAEL HI   N/A     74  49  41 NW5         N/A                   
*SAUGUS          N/A     77  52  41 CALM        N/A                   
*WHITEMAN AP   NOT AVBL                                               
*WHITTIER HILL   N/A     65  57  75 S2          N/A                   
*WOODLAND HILL   N/A     77  55  47 SW5         N/A                   

$$

CAZ054-055-290500-
LA AND SAN BERNARDINO COUNTY MOUNTAINS

  
CITY           SKY/WX    TMP DP  RH WIND       PRES   REMARKS
*ACTON           N/A     77  43  29 CALM        N/A                   
*BIG BEAR AIRP CLEAR     59  32  36 CALM      30.36R                  
*BIG PINES       N/A     64  33  31 CALM        N/A                   
*CHILAO          N/A     73  39  28 N7          N/A                   
SANDBERG       CLEAR     77  35  21 N15G24    30.21R                  
*WARM SPRINGS    N/A     76  33  21 W14         N/A                   

$$

CAZ028-029-059-060-099-290500-
ANTELOPE VALLEY AND SURROUNDING AREAS

  
CITY           SKY/WX    TMP DP  RH WIND       PRES   REMARKS
LANCASTER      CLEAR     83  36  18 W15       30.03R                  
PALMDALE       CLEAR     82  43  25 W7        30.05R                  
*POPPY PARK      N/A     82  36  18 W15         N/A                   

CITY           SKY/WX    TMP DP  RH WIND       PRES   REMARKS
29 PALMS       PTCLDY    89  42  19 SW7       30.04R                  
BARSTOW/DAGGET CLEAR     90  29  11 SW5       29.96R                  
BISHOP         NOT AVBL                                               
CHINA LAKE     CLEAR     85  36  17 S7        29.97R                  
EDWARDS AFB    CLEAR     85  41  20 W15       30.00R                  
MOJAVE         CLEAR     82  48  30 NW25G32   30.04R                  
NEEDLES        CLEAR     93  60  33 SW55      29.88R HX  93           
VICTORVILLE    CLEAR     84  37  18 W13       30.06R                  

$$

CAZ039-040-290500-
VENTURA AND SANTA BARBARA COUNTY COAST

  
CITY           SKY/WX    TMP DP  RH WIND       PRES   REMARKS
CAMARILLO      CLEAR     66  60  81 W5        29.96R                  
NWS OXNARD       N/A     65  59  80 CALM      29.95S                  
OXNARD AIRPORT CLEAR     64  60  87 W8        29.96R                  
*POINT MUGU    CLEAR     66  59  78 NW7       29.97R                  
SBA APT/GOLETA CLEAR     66  63  90 SE8       29.93R                  
*SANTA BARBARA   N/A     69  60  73 CALM      30.02R                  
*VENTURA         N/A     65  60  86 SW1       29.94R                  

$$

CAZ044-045-290500-
VENTURA COUNTY VALLEYS

  
CITY           SKY/WX    TMP DP  RH WIND       PRES   REMARKS
*SIMI VALLEY     N/A     70  58  66 CALM      29.92R                  
*WESTLAKE VILL   N/A     66  57  71 CALM      29.95R                  
*OJAI            N/A     68  58  68 CALM      29.89S                  
*FILLMORE        N/A     71  58  65 CALM      29.86R                  

$$

CAZ053-290500-
VENTURA COUNTY MOUNTAINS

  
CITY           SKY/WX    TMP DP  RH WIND       PRES   REMARKS
*ROSE VALLEY     N/A     70  46  43 MISG        N/A                   

$$

CAZ034-035-036-290500-
CENTRAL COAST AND SANTA YNEZ VALLEY

  
CITY           SKY/WX    TMP DP  RH WIND       PRES   REMARKS
SAN LUIS OBISP CLEAR     62  55  77 NW9       30.04R                  
SANTA MARIA    CLEAR     58  56  93 W7        30.05R                  

CITY           SKY/WX    TMP DP  RH WIND       PRES   REMARKS
*CAL POLY SLO    N/A     59  55  88 W2G9        N/A                   
*LOMPOC        CLEAR     60  56  86 W8        30.05R                  
*PISMO BEACH     N/A     63  57  81 CALM      30.05R                  
*SANTA YNEZ    FAIR      61 N/A N/A SW3       30.05R                  

$$

CAZ037-038-051-290500-
SAN LUIS OBISPO COUNTY INTERIOR AND CUYAMA VALLEY

  
CITY           SKY/WX    TMP DP  RH WIND       PRES   REMARKS
*CUYAMA          N/A     77  52  41 SE5       29.96R                  
PASO ROBLES    CLEAR     70  52  52 NW14      30.01R                  

$$

CAZ032-033-061-290500-
SOUTHERN DESERTS

  
CITY           SKY/WX    TMP DP  RH WIND       PRES   REMARKS
BLYTHE         CLEAR     95  50  21 SW5       29.85R HX  92           
IMPERIAL       CLEAR     95  49  20 SW5       29.81R HX  92           
PALM SPRINGS   CLEAR     96  51  21 SW6       29.88R HX  93           
THERMAL        CLEAR     86  54  33 N3        29.81R                  

$$

ELSEWHERE ACROSS THE WESTERN UNITED STATES AND MEXICO

  
CITY           SKY/WX    TMP DP  RH WIND       PRES   REMARKS
DEATH VALLEY,    N/A     99  45  15 CALM        N/A  HX  95           
DENVER, CO     CLOUDY    64  48  56 E16       30.27R                  
GRAND CANYON,  CLEAR     55  49  80 CALM      30.35R                  
HONOLULU, HI   MOSUNNY   81  66  61 E15       29.93R                  
KAHULUI, MAUI  CLOUDY    79  70  73 NE10      29.93R                  
LAKE TAHOE, CA CLEAR     60  31  33 CALM      30.34R                  
LAS VEGAS, NV  CLEAR     91  44  19 CALM      29.97R                  
MAMMOTH LAKES, FAIR      70  20  15 W3G17     30.37R                  
MEXICO CITY, M MOCLDY    66  55  68 NW7       30.32R                  
PHOENIX, AZ    CLEAR     92  48  22 SW3       29.88R                  
PORTLAND, OR   PTCLDY    75  53  46 NW6       29.99R                  
RENO, NV       CLEAR     79  27  14 VRB7G17   30.18R                  
SALT LAKE CITY CLEAR     77  33  20 S6        30.15R                  
SAN DIEGO, CA  PTCLDY    71  64  78 NW7       29.99R                  
SAN FRANCISCO, PTCLDY    61  53  75 W16       30.06S                  
SAN JOSE, CA   PTCLDY    65  55  70 NW13      30.05R                  
SEATTLE, WA    MOCLDY    62  52  69 N6        30.05S                  
TIJUANA, MEX   PTCLDY    68  61  77 W7        30.01R                  

$$
  
STATION/POSITION TIME  TEMP    WIND        PRES    VSBY  WAVE
                       AIR SEA DIR/SP/G                  HT/PER
                 (UTC) (F)     (DEG/KT/KT) (MB)    (MI)  (FT/S)
POINT ARGUELLO B NOT AVBL
WEST SANTA BARBA 0350   61 59  310/ 23/ 29 1015.6R         6/ 6
POINT CONCEPTION NOT AVBL
EAST SANTA BARBA 0300          260/ 17/ 21 1013.6R
SANTA MONICA BAY 0300   67 69  280/ 12/ 14 1013.4S

Return to Home page


Western Regional Climate Center, wrcc@dri.edu